Regional Weather Roundup
Issued by NWS

Home | Current Version | Previous Version | Text Only | Print | Product List | Glossary Off
Versions: 1 2 3 4 5 6 7 8 9 10 11 12 13 14 15 16 17 18 19 20 21 22 23 24 25 26 27 28 29 30 31 32 33 34 35 36 37 38 39 40 41 42 43 44 45 46 47 48 49 50

000
ASUS43 KLSX 262010
RWRMO

WEATHER SUMMARY FOR MISSOURI
NATIONAL WEATHER SERVICE SPRINGFIELD MO
300 PM CDT FRI MAY 26 2017

NOTE: "FAIR" INDICATES FEW OR NO CLOUDS BELOW 12,000 FEET WITH NO
       SIGNIFICANT WEATHER AND/OR OBSTRUCTIONS TO VISIBILITY.
       CURRENT SKY AND/OR WEATHER CONDITIONS ARE NOT AVAILABLE FOR
       CHILLICOTHE AND FARMINGTON.

MOZ001>031-035>038-043-044-053-054-262100-
...NORTHERN AND WESTERN MISSOURI...

CITY           SKY/WX    TMP DP  RH WIND       PRES   REMARKS
KANSAS CTY INT PTSUNNY   81  65  58 N8        29.76R
KANSAS C DTWN  MOSUNNY   84  65  52 N6        29.74S
LEE`S SUMMIT   MOSUNNY   83  67  58 NE3       29.76R
ST JOSEPH      PTSUNNY   83  64  52 NE8       29.75S
CHILLICOTHE      N/A     82  65  56 N6        29.75R
KIRKSVILLE     PTSUNNY   81  66  60 N9        29.75R

$$
MOZ066>068-077>081-088>096-101>105-262100-
...SOUTHWEST MISSOURI...

CITY           SKY/WX    TMP DP  RH WIND       PRES   REMARKS
SPRINGFIELD    CLOUDY    78  67  68 SW7       29.76F
JOPLIN         CLOUDY    83  69  62 CALM      29.76S
BRANSON        CLOUDY    79  66  65 S5        29.79S

$$
MOZ032>034-039>042-045>050-055>058-069>072-262100-
...CENTRAL MISSOURI...

CITY           SKY/WX    TMP DP  RH WIND       PRES   REMARKS
COLUMBIA       CLOUDY    77  67  71 W6        29.75S
JEFFERSON CITY CLOUDY    80  66  62 W7        29.73S
ROLLA          CLOUDY    77  70  79 W6        29.76R
SEDALIA        CLOUDY    80  68  66 CALM      29.76S
WHITEMAN AFB   SUNNY     80  67  63 W3        29.74S
WARRENSBURG    CLOUDY    79  64  61 CALM      29.75R
OSAGE BEACH    CLOUDY    78  68  71 W6        29.77R

$$
MOZ051-052-059>065-262100-
...EAST CENTRAL MISSOURI...

CITY           SKY/WX    TMP DP  RH WIND       PRES   REMARKS
ST LOUIS INTL  CLOUDY    83  64  52 S10       29.74R
SPIRIT OF STL  CLOUDY    82  67  60 SW7       29.72S
ST CHARLES     CLOUDY    83  66  56 S10       29.71S

$$
MOZ072>076-082>087-097>100-106>115-262100-
...SOUTH CENTRAL AND SOUTHEAST MISSOURI...

CITY           SKY/WX    TMP DP  RH WIND       PRES   REMARKS
CAPE GIRARDEAU CLOUDY    80  63  55 SW24      29.77S
FARMINGTON     CLOUDY    72  66  81 SW10      29.80R
POPLAR BLUFF   LGT RAIN  75  66  73 SW17G25   29.79S
WEST PLAINS    CLOUDY    74  66  76 S8        29.81S

$$




USA.gov is the U.S. government's official web portal to all federal, state and local government web resources and services.